Date String (YYYY-MM-DD hh:mm:ss) UTC,Instrument flags,Ambient pressure (hPa),Sample flow (lpm),Bypass flow (lpm),Sample temperature (°C),Ambient temperature (°C),ASC tube jacket temperature (°C),LED temperature (°C),Box temperature (°C),Sample RH (%),Span deviation,Mass concentration (μg/m³),Mass concentration (μg/m³),Mass concentration (μg/m³)
DateTimeUTC,F1_M11,P_M11,Q1_M11,Q2_M11,T1_M11,T2_M11,T3_M11,T4_M11,T5_M11,U1_M11,ZSPAN_M11,X2_M11,X0_M11,X1_M11
2023-02-24 12:00:00,,0824.4,4.99,0.00,22.8,23.4,00.0,31.3,24.7,04.1,0000.0,0005.59,0010.49,0005.25
2023-02-24 12:01:00,,0824.3,5.03,0.00,22.8,22.8,00.0,31.4,24.6,04.1,0000.0,0005.66,0011.04,0005.31
2023-02-24 12:02:00,,0824.3,5.00,0.00,22.7,22.0,00.0,31.4,24.4,04.1,0000.0,0005.75,0011.21,0005.40
2023-02-24 12:03:00,,0824.3,4.99,0.00,22.7,21.5,00.0,31.4,24.2,04.1,0000.0,0005.84,0011.51,0005.47
2023-02-24 12:04:00,,0824.3,5.04,0.00,22.6,21.1,00.0,31.4,24.1,04.1,0000.0,0005.87,0011.96,0005.50
2023-02-24 12:05:00,,0824.3,4.99,0.00,22.5,20.8,00.0,31.3,24.0,04.1,0002.5,0005.89,0011.43,0005.53
2023-02-24 12:06:00,,0824.2,5.01,0.00,22.5,20.8,00.0,31.3,24.0,04.1,0002.5,0005.93,0011.36,0005.57
2023-02-24 12:07:00,,0824.3,4.99,0.00,22.5,21.8,00.0,31.3,24.2,04.1,0002.3,0005.99,0011.74,0005.64
2023-02-24 12:08:00,,0824.2,4.99,0.00,22.7,22.7,00.0,31.3,24.5,04.1,0002.6,0006.08,0011.90,0005.71
2023-02-24 12:09:00,,0824.2,5.05,0.00,22.8,23.4,00.0,31.3,24.7,04.1,0002.1,0006.13,0011.81,0005.77
2023-02-24 12:10:00,,0824.2,5.00,0.00,22.8,23.3,00.0,31.3,24.7,04.1,0001.1,0006.20,0011.86,0005.82
2023-02-24 12:11:00,,0824.3,4.98,0.00,22.8,22.5,00.0,31.4,24.5,04.1,0001.5,0006.23,0011.21,0005.88
2023-02-24 12:12:00,,0824.3,5.01,0.00,22.7,21.8,00.0,31.4,24.3,04.1,0002.5,0006.29,0010.88,0005.94
2023-02-24 12:13:00,,0824.2,5.02,0.00,22.7,21.4,00.0,31.4,24.2,04.1,0002.7,0006.35,0010.96,0006.01
2023-02-24 12:14:00,,0824.3,4.99,0.00,22.6,21.0,00.0,31.4,24.0,04.1,0002.5,0006.42,0011.54,0006.07
2023-02-24 12:15:00,,0824.2,5.02,0.00,22.5,20.6,00.0,31.3,23.9,04.1,0002.1,0006.52,0011.70,0006.12
2023-02-24 12:16:00,,0824.2,5.01,0.00,22.5,21.2,00.0,31.3,24.0,04.1,0002.1,0006.58,0011.83,0006.18
2023-02-24 12:17:00,,0824.2,4.98,0.00,22.6,22.1,00.0,31.3,24.3,04.1,0002.3,0006.62,0011.81,0006.22
2023-02-24 12:18:00,,0824.2,4.94,0.00,22.7,22.9,00.0,31.3,24.5,04.1,0002.4,0006.68,0011.62,0006.27
2023-02-24 12:19:00,,0824.3,5.00,0.00,22.8,23.4,00.0,31.3,24.7,04.0,0000.7,0006.69,0011.41,0006.29
2023-02-24 12:20:00,,0824.4,4.98,0.00,22.8,22.9,00.0,31.4,24.5,04.0,0001.7,0006.72,0011.57,0006.32
2023-02-24 12:21:00,,0824.2,5.00,0.00,22.7,22.1,00.0,31.4,24.3,04.0,0000.1,0006.72,0011.63,0006.33
2023-02-24 12:22:00,,0824.2,5.00,0.00,22.7,21.6,00.0,31.4,24.2,04.0,0000.0,0006.77,0011.76,0006.35
2023-02-24 12:23:00,,0824.3,5.01,0.00,22.6,21.1,00.0,31.4,24.1,04.0,0000.0,0006.77,0011.75,0006.36
2023-02-24 12:24:00,,0824.3,5.02,0.00,22.5,20.8,00.0,31.4,23.9,04.1,0000.0,0006.79,0012.09,0006.36
2023-02-24 12:25:00,,0824.3,4.99,0.00,22.5,20.7,00.0,31.3,23.9,04.1,0000.0,0006.77,0011.65,0006.35
2023-02-24 12:26:00,,0824.2,5.00,0.00,22.5,21.7,00.0,31.3,24.1,04.0,0000.0,0006.74,0011.35,0006.35
2023-02-24 12:27:00,,0824.2,4.97,0.00,22.6,22.6,00.0,31.3,24.4,04.0,0000.0,0006.72,0011.31,0006.35
2023-02-24 12:28:00,,0824.2,4.96,0.00,22.8,23.4,00.0,31.3,24.6,04.0,0000.0,0006.74,0011.35,0006.36
2023-02-24 12:29:00,,0824.1,5.00,0.00,22.8,23.5,00.0,31.3,24.7,04.0,0000.0,0006.73,0011.28,0006.36
2023-02-24 12:30:00,,0824.1,5.01,0.00,22.8,22.7,00.0,31.4,24.5,03.9,0000.0,0006.73,0011.28,0006.36
2023-02-24 12:31:00,,0824.1,5.00,0.00,22.8,22.0,00.0,31.4,24.3,03.9,0000.0,0006.77,0011.73,0006.38
2023-02-24 12:32:00,,0824.1,4.97,0.00,22.7,21.5,00.0,31.4,24.2,04.0,0000.0,0006.79,0011.74,0006.40
2023-02-24 12:33:00,,0824.1,5.01,0.00,22.6,21.0,00.0,31.4,24.1,04.0,0000.0,0006.78,0011.72,0006.42
2023-02-24 12:34:00,,0824.1,5.00,0.00,22.6,20.7,00.0,31.4,24.0,04.0,0000.0,0006.82,0011.75,0006.43
2023-02-24 12:35:00,,0824.1,5.00,0.00,22.5,20.6,00.0,31.3,23.9,04.0,0000.0,0006.82,0011.46,0006.44
2023-02-24 12:36:00,,0824.1,5.01,0.00,22.5,21.5,00.0,31.3,24.1,04.0,0000.0,0006.81,0011.24,0006.45
2023-02-24 12:37:00,,0824.0,5.01,0.00,22.6,22.4,00.0,31.3,24.3,04.0,0000.0,0006.86,0011.17,0006.47
2023-02-24 12:38:00,,0824.1,5.03,0.00,22.7,23.1,00.0,31.3,24.5,04.0,0000.0,0006.93,0011.26,0006.52
2023-02-24 12:39:00,,0824.1,5.04,0.00,22.7,22.8,00.0,31.4,24.5,04.0,0000.0,0006.94,0011.42,0006.55
2023-02-24 12:40:00,,0824.1,4.99,0.00,22.7,22.1,00.0,31.4,24.3,04.0,0000.0,0007.00,0011.82,0006.58
2023-02-24 12:41:00,,0824.1,5.01,0.00,22.6,21.5,00.0,31.4,24.1,04.0,0000.0,0007.03,0011.88,0006.61
2023-02-24 12:42:00,,0824.1,5.01,0.00,22.6,21.1,00.0,31.3,24.0,04.0,0000.0,0007.01,0011.34,0006.62
2023-02-24 12:43:00,,0824.0,5.01,0.00,22.5,20.7,00.0,31.3,23.8,04.0,0000.0,0007.02,0011.31,0006.65
2023-02-24 12:44:00,,0824.0,5.01,0.00,22.4,21.0,00.0,31.3,23.9,04.0,0000.5,0007.06,0011.48,0006.65
2023-02-24 12:45:00,,0824.0,5.03,0.00,22.5,22.1,00.0,31.3,24.2,04.0,0001.5,0007.06,0011.48,0006.67
2023-02-24 12:46:00,,0823.9,4.97,0.00,22.7,23.0,00.0,31.3,24.5,04.0,0000.2,0007.08,0011.49,0006.71
2023-02-24 12:47:00,,0824.0,5.07,0.00,22.8,23.5,00.0,31.3,24.7,03.9,0000.8,0007.12,0011.58,0006.74
2023-02-24 12:48:00,,0824.0,5.03,0.00,22.8,23.2,00.0,31.3,24.7,03.9,0001.3,0007.14,0011.59,0006.77
2023-02-24 12:49:00,,0823.9,5.02,0.00,22.8,22.4,00.0,31.4,24.4,03.9,0002.2,0007.14,0011.57,0006.80
2023-02-24 12:50:00,,0824.0,4.98,0.00,22.7,21.8,00.0,31.4,24.2,04.0,0002.3,0007.10,0011.53,0006.76
2023-02-24 12:51:00,,0824.0,4.99,0.00,22.6,21.3,00.0,31.4,24.1,04.0,0001.4,0007.05,0011.03,0006.73
2023-02-24 12:52:00,,0824.0,5.00,0.00,22.6,20.9,00.0,31.4,23.9,04.0,0000.0,0007.10,0011.04,0006.77
2023-02-24 12:53:00,,0823.9,5.01,0.00,22.5,20.6,00.0,31.3,23.8,04.0,0000.9,0007.16,0011.13,0006.82
2023-02-24 12:54:00,,0823.9,5.02,0.00,22.4,20.7,00.0,31.3,23.8,04.0,0001.5,0007.19,0011.27,0006.86
2023-02-24 12:55:00,,0823.9,5.01,0.00,22.5,21.7,00.0,31.3,24.1,04.0,0002.5,0007.23,0011.23,0006.91
2023-02-24 12:56:00,,0823.8,4.97,0.00,22.6,22.6,00.0,31.3,24.4,03.9,0003.1,0007.26,0011.79,0006.94
2023-02-24 12:57:00,,0823.8,5.02,0.00,22.7,23.4,00.0,31.3,24.6,03.9,0002.7,0007.29,0012.68,0006.95
2023-02-24 12:58:00,,0823.7,5.01,0.00,22.8,23.3,00.0,31.3,24.6,03.9,0002.7,0007.29,0012.65,0006.98
2023-02-24 12:59:00,,0823.8,4.98,0.00,22.8,22.5,00.0,31.4,24.4,03.9,0003.6,0007.30,0013.26,0006.99
